When you browse on this site, cookies collect data to enhance your experience and personalize the content and advertising you see.
Visit our Privacy Policy to learn more. By continuing to use the site, you agree to this use of cookies and data.
  • In Slovakia
  • List of Countries
  • For 7 days
  • Water Temperature
  • Satellite Maps
  • Weather Map
  • Weather Widgets
  • user-avatar
    Login

    Hourly Weather Escaldes-Engordany

    Today, 21 November, Wednesday

    Time Temperature Precipitation Wind Pressure Humidity
    00:00 0°C° 0 mm 1 mps 628 mmHg 95%
    01:00 0°C° 0 mm 1 mps 628 mmHg 94%
    02:00 -1°C° 0 mm 1 mps 628 mmHg 93%
    03:00 -1°C° 0 mm 1 mps 628 mmHg 92%
    04:00 -1°C° 0 mm 1 mps 629 mmHg 91%
    05:00 -1°C° 0 mm 1 mps 629 mmHg 90%
    06:00 -1°C° 0 mm 1 mps 630 mmHg 89%
    07:00 0°C° 0 mm 1 mps 631 mmHg 84%
    08:00 +2°C° 0 mm 1 mps 631 mmHg 80%
    09:00 +3°C° 0 mm 1 mps 632 mmHg 76%
    10:00 +5°C° 0 mm 1 mps 633 mmHg 73%
    11:00 +5°C° 0 mm 2 mps 634 mmHg 71%
    12:00 +6°C° 0 mm 2 mps 634 mmHg 69%
    13:00 +6°C° 0 mm 2 mps 634 mmHg 71%
    14:00 +5°C° 0 mm 2 mps 634 mmHg 73%
    15:00 +5°C° 0 mm 2 mps 634 mmHg 75%
    16:00 +3°C° 0 mm 2 mps 634 mmHg 81%
    17:00 +3°C° 0 mm 1 mps 634 mmHg 87%
    18:00 +1°C° 0 mm 1 mps 634 mmHg 92%
    19:00 0°C° 0 mm 1 mps 634 mmHg 89%
    20:00 0°C° 0 mm 1 mps 634 mmHg 87%
    21:00 0°C° 0 mm 1 mps 635 mmHg 84%
    22:00 0°C° 0 mm 1 mps 635 mmHg 81%
    23:00 0°C° 0 mm 1 mps 635 mmHg 79%

    Tomorrow, 22 November, Thursday

    Time Temperature Precipitation Wind Pressure Humidity
    00:00 0°C° 0 mm 1 mps 635 mmHg 76%
    01:00 0°C° 0 mm 1 mps 635 mmHg 76%
    02:00 0°C° 0 mm 1 mps 635 mmHg 76%
    03:00 -2°C° 0 mm 2 mps 635 mmHg 76%
    04:00 -2°C° 0 mm 2 mps 635 mmHg 77%
    05:00 -2°C° 0 mm 2 mps 635 mmHg 78%
    06:00 -2°C° 0 mm 2 mps 635 mmHg 79%
    07:00 -1°C° 0 mm 2 mps 636 mmHg 75%
    08:00 +2°C° 0 mm 2 mps 637 mmHg 72%
    09:00 +4°C° 0 mm 2 mps 638 mmHg 68%
    10:00 +5°C° 0 mm 2 mps 638 mmHg 64%
    11:00 +6°C° 0 mm 2 mps 638 mmHg 61%
    12:00 +7°C° 0 mm 3 mps 638 mmHg 58%
    13:00 +6°C° 0 mm 2 mps 638 mmHg 61%
    14:00 +6°C° 0 mm 2 mps 638 mmHg 63%
    15:00 +5°C° 0 mm 2 mps 637 mmHg 66%
    16:00 +4°C° 0 mm 2 mps 637 mmHg 70%
    17:00 +2°C° 0 mm 2 mps 637 mmHg 73%
    18:00 +2°C° 0 mm 1 mps 636 mmHg 77%
    19:00 +2°C° 0 mm 1 mps 636 mmHg 76%
    20:00 +2°C° 0 mm 1 mps 636 mmHg 76%
    21:00 +1°C° 0 mm 1 mps 636 mmHg 76%
    22:00 +1°C° 0 mm 1 mps 636 mmHg 76%
    23:00 +1°C° 0 mm 1 mps 636 mmHg 76%

    Day after tomorrow, 23 November, Friday

    Time Temperature Precipitation Wind Pressure Humidity
    00:00 +1°C° 0 mm 1 mps 636 mmHg 77%
    01:00 +1°C° 0 mm 1 mps 636 mmHg 76%
    02:00 +1°C° 0 mm 1 mps 636 mmHg 76%
    03:00 +1°C° 0 mm 1 mps 636 mmHg 76%
    04:00 +2°C° 0.2 mm 1 mps 636 mmHg 76%
    05:00 +2°C° 0.2 mm 1 mps 636 mmHg 77%
    06:00 +3°C° 0.2 mm 1 mps 636 mmHg 78%
    07:00 +3°C° 0.1 mm 1 mps 636 mmHg 77%
    08:00 +4°C° 0.1 mm 1 mps 636 mmHg 76%
    09:00 +5°C° 0.1 mm 1 mps 637 mmHg 75%
    10:00 +5°C° 0.3 mm 1 mps 637 mmHg 76%
    11:00 +5°C° 0.3 mm 1 mps 636 mmHg 78%
    12:00 +6°C° 0.3 mm 1 mps 636 mmHg 79%
    13:00 +5°C° 0.1 mm 1 mps 636 mmHg 81%
    14:00 +5°C° 0.1 mm 1 mps 636 mmHg 82%
    15:00 +5°C° 0.1 mm 1 mps 635 mmHg 84%
    16:00 +4°C° 0 mm 1 mps 635 mmHg 87%
    17:00 +3°C° 0 mm 1 mps 635 mmHg 90%
    18:00 +1°C° 0 mm 1 mps 635 mmHg 93%
    19:00 +1°C° 0 mm 1 mps 635 mmHg 92%
    20:00 +1°C° 0 mm 1 mps 635 mmHg 91%
    21:00 +1°C° 0 mm 1 mps 636 mmHg 90%
    22:00 0°C° 0 mm 1 mps 636 mmHg 89%
    23:00 0°C° 0 mm 1 mps 636 mmHg 88%

    24 November, Saturday

    Time Temperature Precipitation Wind Pressure Humidity
    00:00 0°C° 0 mm 1 mps 636 mmHg 87%
    01:00 -1°C° 0 mm 1 mps 636 mmHg 85%
    02:00 -1°C° 0 mm 1 mps 635 mmHg 83%
    03:00 -1°C° 0 mm 1 mps 635 mmHg 81%
    04:00 -1°C° 0 mm 1 mps 635 mmHg 78%
    05:00 -1°C° 0 mm 1 mps 635 mmHg 75%
    06:00 -1°C° 0 mm 1 mps 635 mmHg 72%
    07:00 0°C° 0 mm 1 mps 636 mmHg 68%
    08:00 +1°C° 0 mm 1 mps 637 mmHg 64%
    09:00 +2°C° 0 mm 0 mps 637 mmHg 60%
    10:00 +4°C° 0 mm 1 mps 637 mmHg 57%
    11:00 +5°C° 0 mm 1 mps 637 mmHg 54%
    12:00 +5°C° 0 mm 2 mps 638 mmHg 52%
    13:00 +5°C° 0 mm 2 mps 637 mmHg 55%
    14:00 +6°C° 0 mm 1 mps 636 mmHg 58%
    15:00 +5°C° 0 mm 1 mps 636 mmHg 61%
    16:00 +4°C° 0 mm 1 mps 635 mmHg 66%
    17:00 +2°C° 0 mm 1 mps 635 mmHg 71%
    18:00 0°C° 0 mm 1 mps 634 mmHg 76%
    19:00 0°C° 0 mm 1 mps 634 mmHg 74%
    20:00 0°C° 0 mm 1 mps 634 mmHg 73%
    21:00 0°C° 0 mm 1 mps 634 mmHg 72%
    22:00 -1°C° 0 mm 1 mps 634 mmHg 71%
    23:00 -3°C° 0 mm 2 mps 633 mmHg 71%

    25 November, Sunday

    Time Temperature Precipitation Wind Pressure Humidity
    00:00 -3°C° 0 mm 2 mps 633 mmHg 71%
    01:00 -3°C° 0 mm 2 mps 632 mmHg 73%
    02:00 -3°C° 0 mm 2 mps 632 mmHg 74%
    03:00 -3°C° 0 mm 2 mps 631 mmHg 76%
    04:00 -2°C° 0 mm 2 mps 631 mmHg 78%
    05:00 -2°C° 0 mm 2 mps 631 mmHg 80%
    06:00 -1°C° 0 mm 2 mps 631 mmHg 82%
    07:00 +1°C° 0 mm 2 mps 631 mmHg 80%
    08:00 +2°C° 0 mm 2 mps 632 mmHg 78%
    09:00 +4°C° 0 mm 2 mps 633 mmHg 76%
    10:00 +4°C° 0 mm 2 mps 633 mmHg 76%
    11:00 +5°C° 0 mm 2 mps 633 mmHg 76%
    12:00 +5°C° 0 mm 2 mps 633 mmHg 77%
    13:00 +5°C° 0 mm 2 mps 633 mmHg 79%
    14:00 +5°C° 0 mm 2 mps 633 mmHg 82%
    15:00 +5°C° 0 mm 1 mps 633 mmHg 85%
    16:00 +4°C° 0 mm 1 mps 633 mmHg 88%
    17:00 +3°C° 0 mm 1 mps 633 mmHg 92%
    18:00 +3°C° 0 mm 1 mps 633 mmHg 95%
    19:00 +2°C° 0 mm 1 mps 633 mmHg 95%
    20:00 +2°C° 0 mm 1 mps 633 mmHg 94%
    21:00 +2°C° 0 mm 1 mps 633 mmHg 94%
    22:00 +2°C° 0 mm 1 mps 633 mmHg 93%
    23:00 +2°C° 0 mm 1 mps 633 mmHg 92%

    26 November, Monday

    Time Temperature Precipitation Wind Pressure Humidity
    00:00 +2°C° 0 mm 1 mps 633 mmHg 91%
    01:00 +2°C° 0 mm 1 mps 632 mmHg 90%
    02:00 +1°C° 0 mm 1 mps 632 mmHg 88%
    03:00 +1°C° 0 mm 1 mps 632 mmHg 86%
    04:00 -1°C° 0.2 mm 2 mps 632 mmHg 88%
    05:00 -1°C° 0.2 mm 2 mps 632 mmHg 89%
    06:00 -1°C° 0.2 mm 2 mps 633 mmHg 91%
    07:00 +1°C° 0.1 mm 2 mps 633 mmHg 87%
    08:00 0°C° 0.1 mm 3 mps 634 mmHg 83%
    09:00 +1°C° 0.1 mm 3 mps 635 mmHg 79%
    10:00 +2°C° 0 mm 3 mps 635 mmHg 71%
    11:00 +4°C° 0 mm 2 mps 636 mmHg 63%
    12:00 +5°C° 0 mm 2 mps 636 mmHg 55%
    13:00 +5°C° 0 mm 2 mps 636 mmHg 56%
    14:00 +5°C° 0 mm 2 mps 636 mmHg 57%
    15:00 +5°C° 0 mm 2 mps 636 mmHg 59%
    16:00 +3°C° 0 mm 2 mps 635 mmHg 65%
    17:00 +2°C° 0 mm 1 mps 635 mmHg 72%
    18:00 +1°C° 0 mm 1 mps 634 mmHg 78%
    19:00 +1°C° 0 mm 1 mps 634 mmHg 78%
    20:00 +1°C° 0 mm 1 mps 634 mmHg 78%
    21:00 +1°C° 0 mm 1 mps 634 mmHg 77%
    22:00 +1°C° 0.1 mm 1 mps 634 mmHg 76%
    23:00 +1°C° 0.1 mm 1 mps 634 mmHg 75%
    Show more